Wind_Speed
1 3 7 7 5 6 5 5 5 1 3 7 6 8 6 6 6 4 3 4 7 9 11 13 14 15 16 17 17 17 17 17 17 16 16 16 17 17 20 24 23 23 23 23
7 6 9 5 3 4 6 6 4 5 1 8 10 11 7 8 5 2 2 5 8 9 11 13 16 17 17 17 17 18 18 17 17 16 16 17 18 20 20 20 21 23 24 27
4 8 6 2 4 5 3 6 5 9 9 15 8 16 7 9 7 4 2 4 7 11 13 13 16 18 20 20 18 18 18 17 17 17 17 17 18 20 20 23 25 24 24 24
3 3 4 3 4 6 6 1 7 10 10 9 5 8 9 11 11 7 2 5 8 11 13 13 16 20 21 21 20 19 18 18 17 17 18 17 19 20 20 20 22 23 21 24
6 1 3 1 5 5 5 8 9 10 12 10 11 5 8 4 8 8 2 7 11 13 15 15 17 21 21 23 22 20 19 18 17 19 18 19 20 19 19 20 21 22 25 27
5 2 2 7 6 4 8 9 12 8 7 6 5 5 7 4 5 2 4 10 14 15 15 17 20 21 22 24 24 21 20 19 19 18 19 20 22 23 22 22 23 24 24 25
5 3 2 6 7 5 7 6 3 5 5 3 4 7 6 5 3 3 8 12 15 16 17 17 17 21 23 26 25 22 21 21 21 20 22 22 23 25 25 24 25 24 24 25
3 6 1 5 4 5 3 6 2 3 4 9 4 5 6 5 2 3 10 14 16 17 16 16 17 22 23 26 26 23 23 24 23 23 24 25 26 25 25 24 25 27 26 26
3 4 2 2 3 5 4 1 4 1 3 5 1 4 6 5 2 7 14 16 16 17 16 16 18 21 23 25 25 24 25 26 26 27 28 30 28 26 24 25 25 26 28 29
3 4 3 2 5 3 6 4 4 3 3 5 2 4 5 4 5 13 16 17 18 18 18 17 16 21 23 25 25 24 25 26 28 26 29 29 29 27 25 25 27 29 30 31
1 3 7 5 7 3 7 5 0 3 2 3 4 3 6 6 8 15 15 18 18 20 19 18 18 23 25 26 27 26 26 28 29 29 31 29 28 28 29 29 29 30 30 31
4 4 6 2 2 3 5 2 2 2 3 4 5 7 3 5 11 12 15 18 19 19 20 18 19 25 27 28 29 28 28 30 30 34 32 31 30 30 31 31 31 29 29 30
3 3 6 8 6 7 8 8 6 5 5 11 4 5 2 9 12 14 16 18 18 18 20 19 18 21 27 30 31 30 33 31 33 33 32 33 33 31 32 33 32 30 30 30
3 7 8 5 8 5 5 8 9 9 8 11 10 17 13 13 15 16 17 18 20 18 20 20 20 18 28 30 31 33 32 32 32 32 32 33 34 34 36 36 33 31 29 29
6 7 10 11 10 10 11 13 12 13 14 13 14 15 15 13 14 16 17 18 19 20 21 21 21 20 27 29 30 31 31 31 32 32 31 32 33 36 37 37 34 26 24 27
6 6 5 12 12 13 16 15 16 14 14 12 12 15 9 13 14 16 19 19 19 21 22 22 21 21 25 28 29 32 30 31 32 32 31 32 32 32 29 27 19 19 19 17
7 6 5 11 2 8 12 16 16 9 11 10 11 13 11 13 15 16 17 16 21 20 21 20 20 19 26 27 28 27 30 31 30 29 30 30 30 23 17 13 18 22 23 23
9 9 7 7 5 12 3 3 1 7 10 9 11 10 11 13 14 17 12 18 19 20 19 18 19 25 26 27 28 30 29 28 28 27 27 27 23 16 12 13 19 24 27 26
12 11 7 7 9 12 10 11 6 6 9 8 7 8 13 15 16 10 19 18 18 17 15 18 23 24 26 25 28 28 26 26 25 24 25 20 16 15 15 16 18 24 30 32
10 14 10 7 9 6 3 4 2 4 11 5 6 10 14 17 13 13 19 18 17 18 17 20 24 24 24 25 26 26 24 24 23 23 21 17 17 19 21 20 22 26 33 35
6 8 14 10 8 8 7 1 2 9 4 8 10 12 14 12 12 16 17 17 19 17 19 21 22 22 22 23 25 22 21 20 21 19 17 19 21 23 24 27 27 27 33 38
8 6 7 10 9 9 3 5 9 8 9 11 13 12 12 13 14 16 17 17 16 16 20 22 21 22 22 23 23 21 19 19 19 19 20 21 22 23 27 30 29 28 29 35
5 5 5 4 2 5 3 4 5 5 8 9 11 10 11 12 13 15 15 16 14 16 18 20 21 21 20 21 21 20 18 15 17 18 20 22 24 25 26 30 29 29 27 29
4 3 5 4 6 5 2 6 3 4 7 10 10 9 9 11 13 14 14 13 13 16 17 19 19 20 19 21 21 19 16 16 17 18 20 22 25 28 29 31 31 32 28 28
4 4 7 10 12 12 14 8 3 8 11 13 12 9 9 11 12 13 13 13 14 15 17 18 18 19 18 21 19 19 16 16 18 18 21 23 26 31 35 37 34 36 32 27
8 9 10 9 4 4 11 6 9 14 14 14 13 9 7 10 11 12 12 13 13 13 16 17 17 18 17 19 19 17 16 18 17 18 19 21 25 31 35 38 39 39 35 31
Wind_Direction
74 285 11 348 341 315 290 280 281 338 80 296 311 293 201 191 207 168 118 53 32 22 7 5 356 348 342 337 333 333 328 325 322 312 301 289 275 270 262 255 252 249 244 243
215 51 352 301 302 290 248 266 260 281 79 301 305 296 288 178 190 161 34 24 11 0 359 357 352 347 342 332 328 326 326 322 319 309 301 289 281 275 270 268 265 254 248 244
23 24 349 197 183 243 224 295 326 309 312 267 273 275 167 181 178 177 50 8 1 353 344 343 345 344 339 334 329 321 320 317 312 308 301 291 283 274 267 264 261 258 254 249
44 56 359 77 92 306 279 64 289 287 295 305 12 292 193 168 204 211 288 347 350 346 339 336 337 338 336 333 325 321 313 311 310 306 300 291 286 283 281 280 273 269 263 252
80 78 7 29 6 326 3 316 289 294 289 302 252 251 127 153 202 200 276 338 344 338 336 333 334 331 330 331 327 319 313 307 308 305 300 294 287 284 285 283 278 273 265 256
99 111 3 2 321 293 305 276 262 269 262 250 91 290 119 110 47 125 336 340 338 331 329 338 334 330 334 328 329 320 315 307 306 308 304 296 288 288 281 282 284 275 270 262
180 126 146 341 299 180 293 295 315 233 204 319 128 273 52 77 113 16 338 326 339 337 335 337 334 336 331 336 330 322 316 310 310 303 302 297 290 287 289 279 279 278 275 268
299 173 352 9 355 339 7 337 99 264 327 324 239 235 104 59 98 288 325 341 337 338 338 333 335 332 335 334 331 325 317 311 310 307 304 299 293 283 279 276 274 279 277 271
265 158 128 16 313 282 100 36 14 240 244 266 174 156 159 119 186 333 337 336 337 340 336 337 333 331 334 333 330 322 319 314 313 308 306 302 295 287 283 277 275 269 271 270
85 257 186 84 220 101 322 106 215 119 293 295 286 311 278 348 346 348 337 334 336 337 337 338 330 331 334 334 328 324 321 315 312 303 303 299 295 289 284 281 277 276 268 270
349 284 144 224 209 210 176 183 251 290 297 288 302 306 63 341 347 337 328 339 336 338 338 331 331 336 333 330 331 325 320 318 309 306 305 299 296 292 287 280 274 270 267 265
78 302 272 315 119 269 267 237 255 251 236 211 272 282 96 342 324 333 334 338 338 337 333 334 332 334 334 332 331 325 322 316 312 310 306 299 297 292 287 281 277 270 265 261
149 202 273 178 182 189 239 217 245 273 272 264 247 262 355 326 321 340 338 337 330 336 337 334 336 334 333 332 328 325 322 316 313 312 307 304 300 294 287 281 275 267 262 257
233 244 240 254 333 334 223 239 237 248 273 263 265 270 299 323 341 339 333 331 334 334 339 339 334 332 331 329 328 324 318 320 319 314 308 302 298 296 292 285 272 262 255 253
221 246 237 256 269 261 261 264 254 255 251 269 294 308 311 339 339 321 333 335 333 335 338 335 333 331 330 329 327 323 324 321 319 314 308 303 304 300 295 288 276 259 248 247
205 251 265 263 251 246 262 251 253 266 257 265 273 275 350 337 328 334 333 331 328 333 332 331 331 331 329 331 326 327 323 320 320 316 316 314 311 306 309 314 277 247 256 251
220 256 248 272 238 259 259 254 247 240 239 270 289 330 317 330 336 334 324 328 338 331 325 329 332 333 332 329 329 326 322 322 324 322 320 319 315 322 341 20 69 76 78 83
227 238 250 274 253 253 57 104 223 268 289 283 303 311 327 331 336 310 343 347 330 323 327 332 336 331 331 331 331 328 327 332 329 327 327 328 333 353 9 47 67 79 81 80
226 232 249 242 239 266 264 218 251 247 293 321 303 319 321 330 315 306 7 344 332 330 332 333 333 333 334 336 332 329 332 337 335 338 335 348 2 31 41 50 66 78 84 80
217 226 229 240 257 258 297 127 336 288 268 66 339 324 323 324 317 345 339 342 337 336 339 339 337 337 342 339 336 336 342 345 346 348 348 21 35 53 60 62 69 79 86 87
168 194 218 230 244 274 86 82 248 247 21 339 337 331 327 322 326 322 336 341 337 337 341 343 340 351 343 343 341 339 348 352 354 7 21 45 55 64 69 73 75 84 91 91
211 212 206 231 239 255 101 189 258 1 329 331 321 317 322 322 323 332 339 344 339 344 347 347 346 351 348 350 348 345 355 0 16 29 43 54 64 71 77 80 79 82 89 92
240 245 312 231 46 113 73 359 321 328 318 330 322 325 321 322 334 337 344 345 342 348 351 346 353 349 354 356 355 349 1 21 42 53 56 58 66 69 76 81 82 81 81 86
217 202 244 281 229 267 239 266 247 299 323 320 317 319 322 333 337 348 348 345 344 351 351 349 354 356 359 0 360 2 15 38 51 58 62 65 71 74 74 77 78 79 79 83
299 161 253 268 270 274 265 273 221 296 312 310 308 309 327 332 343 351 348 348 344 352 350 356 2 2 6 4 10 8 30 49 61 69 77 80 81 81 78 76 77 78 72 79
208 244 251 257 335 295 295 272 301 311 311 309 295 292 329 339 346 350 345 350 347 356 351 2 8 12 14 16 21 24 47 59 63 68 73 82 87 85 86 87 80 77 78 82
Height
778 777 787 785 782 781 781 784 785 778 776 784 775 779 774 783 782 785 785 786 787 787 787 788 787 785 783 780 776 774 770 768 764 760 756 752 748 746 744 743 743 744 745 746
783 788 786 782 784 785 784 786 782 778 777 783 776 777 769 779 783 786 787 787 787 786 785 786 785 783 781 778 775 772 769 766 763 759 756 753 750 745 742 740 737 737 738 738
787 792 782 786 786 788 783 786 785 788 778 771 779 768 780 781 784 785 785 786 786 785 784 783 782 780 777 775 772 770 767 764 761 758 754 749 746 741 737 735 732 731 732 732
786 786 788 785 791 787 788 783 786 787 786 787 776 791 768 777 786 787 786 784 783 782 780 778 777 776 774 771 768 766 764 761 758 755 751 747 744 739 734 731 728 726 725 725
794 793 792 791 795 789 786 786 784 784 785 784 776 789 767 775 783 780 783 782 780 778 777 773 773 772 769 767 764 762 760 757 755 751 749 745 739 735 730 728 725 722 720 718
790 788 789 792 788 789 784 786 779 780 780 796 782 785 764 771 778 781 780 780 778 774 771 770 770 768 766 763 760 758 755 753 750 747 745 741 737 733 730 726 722 717 713 710
793 791 790 789 786 785 781 785 799 792 786 782 783 790 772 778 779 783 784 778 774 772 769 768 766 764 762 759 757 754 751 748 746 742 740 737 733 729 725 721 717 711 707 704
796 802 792 791 794 795 792 793 823 842 801 784 771 790 782 777 779 780 775 774 772 770 768 766 764 762 759 757 754 751 747 742 740 737 733 730 727 722 718 715 712 708 703 699
797 799 792 794 791 791 791 796 797 819 802 809 770 773 767 776 778 774 775 773 771 768 765 762 761 759 756 754 752 749 744 740 736 732 728 723 719 715 711 709 706 702 700 694
797 807 793 793 790 791 790 792 803 804 837 816 771 779 784 774 776 776 776 771 768 764 760 759 757 754 752 751 748 744 742 737 733 729 724 718 712 707 704 701 698 694 691 689
795 804 797 795 793 786 791 790 799 803 808 826 819 783 771 777 779 778 773 768 765 761 757 755 752 750 749 746 743 741 737 733 728 723 717 711 705 700 695 691 687 684 682 680
795 800 799 791 785 787 787 790 793 809 815 814 817 804 770 774 774 771 769 766 762 760 756 751 748 746 744 742 740 737 732 728 722 716 709 702 697 691 686 680 675 673 671 669
795 797 799 795 792 791 794 787 790 795 800 808 823 801 768 770 770 766 768 765 761 757 753 749 746 743 741 739 735 731 728 722 716 710 702 694 688 681 675 670 665 662 660 658
800 796 801 812 790 788 794 792 789 793 800 798 795 787 774 771 769 767 767 762 758 755 751 748 744 741 739 737 732 729 723 717 711 704 696 687 678 671 664 657 652 650 649 648
796 798 790 788 786 788 790 788 784 785 784 793 783 782 772 767 770 768 763 760 757 753 750 746 742 739 737 734 732 727 720 714 707 698 690 681 672 663 653 644 637 637 639 638
794 796 793 793 783 783 784 778 777 775 774 775 775 775 760 763 763 764 763 760 755 751 748 743 741 739 736 735 730 724 718 710 703 694 684 676 666 656 647 636 625 628 629 629
793 791 795 788 779 780 785 766 764 767 765 769 776 767 765 764 766 765 762 755 754 750 746 742 741 740 738 735 729 723 715 707 699 691 682 672 663 653 646 639 631 629 630 631
789 794 789 789 783 796 760 758 761 768 765 762 764 764 764 764 763 760 753 754 753 749 745 744 743 741 738 734 728 722 714 705 697 689 680 670 661 655 651 646 641 638 638 642
786 789 790 791 778 766 761 759 767 767 767 759 768 765 763 761 759 748 752 754 753 749 749 748 745 740 737 733 728 720 712 705 697 689 680 672 665 659 656 653 650 647 647 648
784 788 789 777 790 793 764 765 766 764 773 765 768 767 765 761 759 752 754 752 750 750 750 748 744 740 737 733 727 720 712 705 697 690 682 676 670 666 663 662 660 659 655 661
787 788 787 783 788 771 762 768 768 782 777 771 769 767 765 766 762 757 752 751 751 751 750 749 744 740 739 734 727 720 713 706 700 693 687 681 677 673 671 669 669 671 670 672
774 777 776 777 784 793 767 770 776 775 772 770 769 768 766 763 759 756 752 751 750 750 749 749 743 743 740 735 728 721 715 709 703 698 693 689 686 681 680 678 680 682 684 683
780 768 767 768 769 770 771 775 774 775 774 772 771 769 766 763 760 756 753 752 751 751 752 750 747 744 741 736 731 724 718 712 708 704 700 697 694 692 690 688 690 692 697 697
771 772 771 773 761 765 770 770 775 775 774 772 769 768 766 764 759 757 754 753 752 752 753 751 749 745 743 738 733 727 721 717 713 709 708 706 703 702 701 700 703 703 710 713
769 774 770 769 767 765 763 765 770 773 772 770 767 766 765 764 760 759 755 754 755 754 754 753 751 748 746 741 736 730 726 722 720 718 716 714 713 711 709 710 716 717 724 727
770 775 771 765 761 769 767 768 769 771 769 767 766 764 765 764 762 760 758 758 757 757 756 755 754 752 749 744 740 735 731 728 727 724 723 723 722 720 720 723 728 733 736 738